User: anonymous   Login
Location: Arboyeti
(42.1122°N, 44.6017°E)
Time: 20:40:31
(UTC+00:00)
Language:

BREEZE-M DEB (TANK) - Orbit

View from above orbital plane
View from above orbital plane
View from above satellite
View from above satellite

Ground track
Ground track

The orbit data is extracted from the following two-line orbital elements,

1 36103U 09065C   21170.60821738  .00000452  00000-0  90037-4 0  9993
2 36103  49.4029  17.3990 5306008 178.1959 185.0971  5.12410127213486
Epoch (UTC): 19 June 2021 14:35:49
Eccentricity: 0.5306008
inclination: 49.4029°
perigee height: 293 km
apogee height: 15375 km
right ascension of ascending node: 17.3990°
argument of perigee: 178.1959°
revolutions per day: 5.12410127
mean anomaly at epoch: 185.0971°
orbit number at epoch: 21348

The dashed part of the orbit path shows where the satellite is in the earth's shadow,  

DLR